STARLINK-32046, 60198

Orbit data source: Space-Track

STARLINK-32046, 60198 is a payload satellite owned by SpaceX/Seattle (US) in LEO that was launched on Wed, 03 Jul 2024 UTC via an FALCON 9 launch vehicle from the Air Force Eastern Test Range (AFETR). Payload-class satellites include a variety of spacecraft equipped with specific instruments for various scientific and technological missions. These include communications satellites like Starlink; space stations such as the ISS; scientific satellites like the Hubble; Earth observation satellites from companies like Planet Labs, Umbra, and HawkEye 360; GPS; miniature CubeSats for education and research; and military/defense satellites.

Loading next visibility...
Identifier
60198, 2024-124R
Orbit
LEO
Country
Flag of USUS
Related business
Manufacturer
SpaceX/Seattle
Mission
Operational Commercial Communications
Bus & Motor
STARLINK V2M, Unknown motor
Mass
730 kg wet, ~700 kg dry
Launch date (UTC)
2024-07-03 (1 year ago)
Launch vehicle
FALCON 9
Launch site
Air Force Eastern Test Range (AFETR)
Object type
Payload
Rocket body
Debris
Shape & HBR
Box + 2 Pan, 17.7 m
Radar Cross Section
33.884 m², Large (>1 m²)

Expand to show TLE details & history
Last TLE update: 11 hours ago

TLE from 11 hours ago
0 STARLINK-32046
1 60198U 24124R   25310.62687924  .00001478  00000-0  62024-4 0  9990
2 60198  53.1603 174.1510 0001536  85.6977 274.4199 15.30190561 76684
Epoch: 2025-11-06T15:02Z
TLE epoch observation values (Epoch: 2025-11-06T15:02:42.366Z)
Latitude
-0.00003°
Longitude
-97.60804°
Altitude
476.062 km
Speed
7.629 km/s
True Right ascension
11h 36m 36s
True Declination
0° 00' 00"
Sunlit
Object was in daylight at epoch
Visualization orbit readout
Latitude
Unknown
Longitude
Unknown
Altitude
Unknown
Speed
Unknown
Apparent Right ascension
Unknown
Apparent Declination
Unknown
Sunlit
N/A
Visualization observer readout
Local Sidereal Time
21:40:33
Azimuth
Unknown
Elevation
Unknown
Doppler factor
Unknown
Orbital elements
Apogee altitude
476.552 km
Perigee altitude
474.447 km
Semi-major axis
6,853.637 km
Eccentricity
0.00015
Inclination
53.1603°
RAAN
174.151°
Arg. of periapsis
85.6977°
True anomaly
274.40235°
Mean anomaly
274.4199°
Eccentric anomaly
274.41113°
Mean motion
3.82527 °/min
Orbital period
94.11 mins
BSTAR
0.000062024
Loading maneuver chart data...
Computing Atmospheric mass density...
Loading historical data...
Loading historical data...
Loading historical data...
Loading historical data...
Loading historical data...
Loading historical data...
Loading historical data...

Documentation

Showing up to 5 results
|